timestamp,surface_pressure_avg,surface_temp_avg,battery_voltage,lat,long
2019-03-20 00:00:00+00:00,320.4697,0.4,12.97,47.84626,-54.09684
2019-03-20 00:10:00+00:00,318.3214,0.45,12.81,47.84626,-54.09684
2019-03-20 00:20:00+00:00,313.588,0.5,12.89,47.84626,-54.09684
2019-03-20 00:30:00+00:00,306.2479,0.5,12.97,47.84626,-54.09684
2019-03-20 00:40:00+00:00,299.868,0.49,12.97,47.84626,-54.09684
2019-03-20 00:50:00+00:00,293.9913,0.49,12.97,47.84626,-54.09684
2019-03-20 01:00:00+00:00,285.3364,0.5,12.89,47.84626,-54.09684
2019-03-20 01:10:00+00:00,276.5264,0.5,12.81,47.84626,-54.09684
2019-03-20 01:20:00+00:00,268.4964,0.5,12.89,47.84626,-54.09684
2019-03-20 01:30:00+00:00,257.6247,0.5,12.89,47.84626,-54.09684
2019-03-20 01:40:00+00:00,248.5314,0.5,12.97,47.84626,-54.09684
2019-03-20 01:50:00+00:00,244.0781,0.5,12.97,47.84626,-54.09684
2019-03-20 02:00:00+00:00,237.8964,0.5,12.89,47.84626,-54.09684
2019-03-20 02:10:00+00:00,226.1881,0.5,12.81,47.84626,-54.09684
2019-03-20 02:20:00+00:00,218.1481,0.5,12.89,47.84626,-54.09684
2019-03-20 02:30:00+00:00,215.9098,0.5,12.89,47.84626,-54.09684
2019-03-20 02:40:00+00:00,209.1981,0.5,12.89,47.84626,-54.09684
2019-03-20 02:50:00+00:00,199.4198,0.49,12.89,47.84626,-54.09684
2019-03-20 03:00:00+00:00,194.2298,0.5,12.81,47.84626,-54.09684
2019-03-20 03:10:00+00:00,189.0131,0.5,12.73,47.84626,-54.09684
2019-03-20 03:20:00+00:00,181.0098,0.5,12.81,47.84626,-54.09684
2019-03-20 03:30:00+00:00,177.1198,0.5,12.81,47.84626,-54.09684
2019-03-20 03:40:00+00:00,176.1898,0.5,12.89,47.84626,-54.09684
2019-03-20 03:50:00+00:00,171.0765,0.5,12.89,47.84626,-54.09684
2019-03-20 04:00:00+00:00,164.8331,0.5,12.81,47.84626,-54.09684
2019-03-20 04:10:00+00:00,164.9465,0.5,12.73,47.84626,-54.09684
2019-03-20 04:20:00+00:00,167.4265,0.5,12.81,47.84626,-54.09684
2019-03-20 04:30:00+00:00,161.9099,0.5,12.81,47.84626,-54.09684
2019-03-20 04:40:00+00:00,158.2848,0.5,12.81,47.84626,-54.09684
2019-03-20 04:50:00+00:00,162.7831,0.48,12.89,47.84626,-54.09684
2019-03-20 05:00:00+00:00,162.2665,0.4,12.81,47.84626,-54.09684
2019-03-20 05:10:00+00:00,159.4648,0.19,12.73,47.84626,-54.09684
2019-03-20 05:20:00+00:00,165.0548,0.16,12.81,47.84626,-54.09684
2019-03-20 05:30:00+00:00,169.4365,0.29,12.81,47.84626,-54.09684
2019-03-20 05:40:00+00:00,168.2232,0.26,12.81,47.84626,-54.09684
2019-03-20 05:50:00+00:00,171.9498,0.3,12.81,47.84626,-54.09684
2019-03-20 06:00:00+00:00,181.1898,0.4,12.73,47.84626,-54.09684
2019-03-20 06:10:00+00:00,184.9131,0.38,12.65,47.84626,-54.09684
2019-03-20 06:20:00+00:00,185.1948,0.4,12.73,47.84626,-54.09684
2019-03-20 06:30:00+00:00,192.0481,0.4,12.81,47.84626,-54.09684
2019-03-20 06:40:00+00:00,197.2265,0.4,12.81,47.84626,-54.09684
2019-03-20 06:50:00+00:00,201.7181,0.4,12.81,47.84626,-54.09684
2019-03-20 07:00:00+00:00,209.0164,0.4,12.73,47.84626,-54.09684
2019-03-20 07:10:00+00:00,214.4731,0.4,12.65,47.84626,-54.09684
2019-03-20 07:20:00+00:00,220.2314,0.4,12.73,47.84626,-54.09684
2019-03-20 07:30:00+00:00,227.5398,0.4,12.73,47.84626,-54.09684
2019-03-20 07:40:00+00:00,238.7998,0.4,12.81,47.84626,-54.09684
2019-03-20 07:50:00+00:00,249.2548,0.36,12.81,47.84626,-54.09684
2019-03-20 08:00:00+00:00,256.7448,0.29,12.73,47.84626,-54.09684
2019-03-20 08:10:00+00:00,267.8081,0.2,12.65,47.84626,-54.09684
2019-03-20 08:20:00+00:00,279.7147,0.2,12.73,47.84626,-54.09684
2019-03-20 08:30:00+00:00,287.6431,0.18,12.73,47.84626,-54.09684
2019-03-20 08:40:00+00:00,294.6813,0.1,12.81,47.84626,-54.09684
2019-03-20 08:50:00+00:00,308.0096,0.1,12.81,47.84626,-54.09684
2019-03-20 09:00:00+00:00,317.9547,0.1,12.73,47.84626,-54.09684
2019-03-20 09:10:00+00:00,319.9113,0.09,12.65,47.84626,-54.09684
2019-03-20 09:20:00+00:00,326.6913,0.1,12.73,47.84626,-54.09684
2019-03-20 09:30:00+00:00,339.653,0.1,12.73,47.84626,-54.09684
2019-03-20 09:40:00+00:00,342.4513,0.1,12.81,47.84626,-54.09684
2019-03-20 09:50:00+00:00,343.9329,0.08,12.81,47.84626,-54.09684
2019-03-20 10:00:00+00:00,355.0062,0.04,12.73,47.84626,-54.09684
2019-03-20 10:10:00+00:00,362.5912,0.01,12.65,47.84626,-54.09684
2019-03-20 10:20:00+00:00,357.5413,0.0,12.73,47.84626,-54.09684
2019-03-20 10:30:00+00:00,363.2629,0.0,12.73,47.84626,-54.09684
2019-03-20 10:40:00+00:00,371.9913,0.0,12.81,47.84626,-54.09684
2019-03-20 10:50:00+00:00,368.0713,0.0,12.81,47.84626,-54.09684
2019-03-20 11:00:00+00:00,364.7179,-0.02,12.81,47.84626,-54.09684
2019-03-20 11:10:00+00:00,373.8712,-0.1,12.73,47.84626,-54.09684
2019-03-20 11:20:00+00:00,377.0196,-0.1,12.89,47.84626,-54.09684
2019-03-20 11:30:00+00:00,367.2996,-0.01,12.97,47.84626,-54.09684
2019-03-20 11:40:00+00:00,367.8412,-0.1,13.05,47.84626,-54.09684
2019-03-20 11:50:00+00:00,370.5213,-0.1,13.13,47.84626,-54.09684
2019-03-20 12:00:00+00:00,361.323,-0.1,13.13,47.84626,-54.09684
2019-03-20 12:10:00+00:00,354.6846,-0.1,13.21,47.84626,-54.09684
2019-03-20 12:20:00+00:00,354.0396,-0.1,13.37,47.84626,-54.09684
2019-03-20 12:30:00+00:00,347.5663,-0.02,13.6,47.84626,-54.09684
2019-03-20 12:40:00+00:00,336.238,0.04,13.92,47.84626,-54.09684
2019-03-20 12:50:00+00:00,333.5262,0.1,14.48,47.84626,-54.09684
2019-03-20 13:00:00+00:00,331.598,0.1,14.64,47.84626,-54.09684
2019-03-20 13:10:00+00:00,320.8863,0.1,14.8,47.84626,-54.09684
2019-03-20 13:20:00+00:00,314.2014,0.1,15.75,47.84626,-54.09684
2019-03-20 13:30:00+00:00,313.1647,0.08,17.11,47.84626,-54.09684
2019-03-20 13:40:00+00:00,304.0297,0.1,14.8,47.84626,-54.09684
2019-03-20 13:50:00+00:00,286.3097,0.05,14.72,47.84626,-54.09684
2019-03-20 14:00:00+00:00,277.0497,0.04,14.72,47.84626,-54.09684
2019-03-20 14:10:00+00:00,273.6964,0.09,14.88,47.84626,-54.09684
2019-03-20 14:20:00+00:00,262.7798,0.1,14.8,47.84626,-54.09684
2019-03-20 14:30:00+00:00,248.483,0.16,14.72,47.84626,-54.09684
2019-03-20 14:40:00+00:00,237.3247,0.19,14.8,47.84626,-54.09684
2019-03-20 14:50:00+00:00,227.7648,0.2,14.72,47.84626,-54.09684
2019-03-20 15:00:00+00:00,219.5531,0.2,14.64,47.84626,-54.09684
2019-03-20 15:10:00+00:00,210.7598,0.23,14.64,47.84626,-54.09684
2019-03-20 15:20:00+00:00,198.9231,0.27,14.88,47.84626,-54.09684
2019-03-20 15:30:00+00:00,188.9215,0.3,14.96,47.84626,-54.09684
2019-03-20 15:40:00+00:00,181.2581,0.3,14.8,47.84626,-54.09684
2019-03-20 15:50:00+00:00,174.1481,0.3,16.87,47.84626,-54.09684
2019-03-20 16:00:00+00:00,168.4965,0.34,14.96,47.84626,-54.09684
2019-03-20 16:10:00+00:00,166.5132,0.35,14.88,47.84626,-54.09684
2019-03-20 16:20:00+00:00,161.7165,0.38,14.88,47.84626,-54.09684
2019-03-20 16:30:00+00:00,151.6282,0.4,14.72,47.84626,-54.09684
2019-03-20 16:40:00+00:00,152.7598,0.4,14.72,47.84626,-54.09684
2019-03-20 16:50:00+00:00,158.6982,0.31,14.72,47.84626,-54.09684
2019-03-20 17:00:00+00:00,151.7515,0.3,14.64,47.84626,-54.09684
2019-03-20 17:10:00+00:00,147.7149,0.32,14.48,47.84626,-54.09684
2019-03-20 17:20:00+00:00,153.9732,0.3,14.64,47.84626,-54.09684
2019-03-20 17:30:00+00:00,152.5198,0.3,14.56,47.84626,-54.09684
2019-03-20 17:40:00+00:00,149.8248,0.3,14.56,47.84626,-54.09684
2019-03-20 17:50:00+00:00,154.1998,0.3,14.56,47.84626,-54.09684
2019-03-20 18:00:00+00:00,160.0532,0.3,14.8,47.84626,-54.09684
2019-03-20 18:10:00+00:00,160.5765,0.3,14.64,47.84626,-54.09684
2019-03-20 18:20:00+00:00,163.8131,0.3,14.8,47.84626,-54.09684
2019-03-20 18:30:00+00:00,171.8482,0.36,14.8,47.84626,-54.09684
2019-03-20 18:40:00+00:00,174.4114,0.4,14.72,47.84626,-54.09684
2019-03-20 18:50:00+00:00,177.7932,0.48,14.64,47.84626,-54.09684
2019-03-20 19:00:00+00:00,185.9748,0.5,14.56,47.84626,-54.09684
2019-03-20 19:10:00+00:00,190.6264,0.5,14.48,47.84626,-54.09684
2019-03-20 19:20:00+00:00,196.2181,0.49,14.56,47.84626,-54.09684
2019-03-20 19:30:00+00:00,202.8931,0.45,14.56,47.84626,-54.09684
2019-03-20 19:40:00+00:00,208.3781,0.3,14.48,47.84626,-54.09684
2019-03-20 19:50:00+00:00,216.3148,0.19,14.48,47.84626,-54.09684
2019-03-20 20:00:00+00:00,227.6748,0.17,14.32,47.84626,-54.09684
2019-03-20 20:10:00+00:00,234.6815,0.2,14.16,47.84626,-54.09684
2019-03-20 20:20:00+00:00,236.0164,0.3,14.24,47.84626,-54.09684
2019-03-20 20:30:00+00:00,246.7081,0.2,14.16,47.84626,-54.09684
2019-03-20 20:40:00+00:00,264.4531,0.1,14.24,47.84626,-54.09684
2019-03-20 20:50:00+00:00,271.8831,0.06,14.16,47.84626,-54.09684
2019-03-20 21:00:00+00:00,274.723,0.09,14.08,47.84626,-54.09684
2019-03-20 21:10:00+00:00,283.0013,0.0,13.92,47.84626,-54.09684
2019-03-20 21:20:00+00:00,297.273,0.0,13.92,47.84626,-54.09684
2019-03-20 21:30:00+00:00,305.5813,0.0,13.84,47.84626,-54.09684
2019-03-20 21:40:00+00:00,310.2313,0.02,13.84,47.84626,-54.09684
2019-03-20 21:50:00+00:00,319.6296,0.0,13.76,47.84626,-54.09684
2019-03-20 22:00:00+00:00,326.1329,0.04,13.68,47.84626,-54.09684
2019-03-20 22:10:00+00:00,330.9097,0.09,13.44,47.84626,-54.09684
2019-03-20 22:20:00+00:00,337.1063,0.0,13.44,47.84626,-54.09684
2019-03-20 22:30:00+00:00,344.0646,0.0,13.44,47.84626,-54.09684
2019-03-20 22:40:00+00:00,347.9446,-0.02,13.37,47.84626,-54.09684
2019-03-20 22:50:00+00:00,350.9562,-0.1,13.37,47.84626,-54.09684
2019-03-20 23:00:00+00:00,353.7063,-0.13,13.29,47.84626,-54.09684
2019-03-20 23:10:00+00:00,354.1912,-0.1,13.13,47.84626,-54.09684
2019-03-20 23:20:00+00:00,354.8013,-0.1,13.13,47.84626,-54.09684
2019-03-20 23:30:00+00:00,356.338,-0.1,13.05,47.84626,-54.09684
2019-03-20 23:40:00+00:00,356.8297,-0.1,13.05,47.84626,-54.09684
2019-03-20 23:50:00+00:00,355.9579,-0.1,13.05,47.84626,-54.09684
